Wind_Speed
13 14 15 16 18 19 19 20 21 22 22 22 22 22 22 23 21 20 19 18 18 18 18 17 17 17 17 17 17 18 19 19 19 20 20 20 21 22 23 23 23 24 24 24
13 14 14 17 18 19 20 20 20 21 21 22 22 21 21 21 21 20 20 19 18 18 18 17 17 17 17 17 17 18 18 19 19 20 21 21 22 22 23 24 24 25 24 25
12 14 15 17 18 19 19 19 19 20 20 19 19 19 19 19 20 20 20 19 18 18 17 16 16 16 17 17 18 18 18 19 19 19 20 21 22 23 24 25 25 25 25 26
12 13 14 16 17 18 19 18 18 18 19 18 18 18 18 18 19 19 19 18 18 18 18 17 16 16 17 17 18 18 18 19 19 19 21 22 22 23 24 24 24 24 24 25
11 13 14 15 16 16 16 17 18 17 18 17 17 19 18 18 18 18 18 18 19 20 19 18 17 16 16 17 17 18 19 20 20 21 21 22 23 23 23 24 24 23 23 24
12 13 14 14 15 16 16 17 17 16 17 18 18 19 18 18 18 18 18 18 19 19 19 17 18 17 16 17 18 19 20 21 22 22 22 22 22 22 22 22 23 23 23 23
12 13 13 14 14 15 15 16 17 17 17 18 18 19 19 18 18 18 18 18 18 18 17 17 17 18 18 18 19 20 21 22 22 22 22 22 23 23 23 23 24 25 25 25
11 12 12 12 12 12 12 14 15 17 16 16 16 18 18 18 18 18 18 18 18 18 18 18 19 19 20 19 19 20 20 21 21 21 22 23 23 23 24 25 26 26 25 25
10 11 11 11 11 12 12 13 14 16 16 16 16 17 16 16 17 16 17 18 18 19 19 19 19 20 20 19 19 19 20 20 20 20 21 23 23 24 24 25 25 24 24 24
10 10 11 11 11 11 12 14 15 16 17 17 16 15 15 14 16 16 17 17 18 18 19 19 19 19 19 20 19 20 20 20 20 20 21 23 23 24 24 24 24 24 24 24
10 10 10 11 11 10 11 13 14 15 17 18 18 16 16 16 17 18 18 18 18 18 19 19 18 19 19 20 20 20 20 20 21 21 21 21 21 22 23 23 23 23 22 23
10 11 11 11 11 11 11 12 13 14 16 18 18 17 17 18 17 18 18 18 18 18 18 18 18 18 19 20 21 20 20 20 20 20 21 20 20 20 21 22 21 21 22 22
13 13 12 12 12 12 13 13 14 15 17 18 19 18 18 18 18 18 18 18 18 18 18 18 19 19 19 19 19 19 19 19 19 19 20 19 19 20 21 21 20 21 21 21
13 13 13 13 13 13 14 14 15 16 17 18 18 18 17 17 17 18 17 17 17 17 18 18 18 18 18 18 18 18 18 18 18 18 18 19 19 19 19 19 19 18 19 19
13 14 14 14 15 15 14 15 16 16 17 19 19 18 17 17 17 16 16 15 15 16 16 16 16 16 16 16 17 17 17 16 16 17 17 18 18 18 17 17 17 17 17 16
14 15 14 14 15 15 14 14 15 16 16 17 17 17 16 17 16 15 15 15 15 15 15 15 15 16 16 15 16 15 15 15 15 15 16 16 16 16 16 16 16 16 15 14
15 15 14 14 15 15 15 14 14 15 15 15 16 15 15 16 15 15 14 15 16 15 15 15 15 16 16 16 15 14 14 14 14 14 14 14 14 15 15 15 15 14 14 14
15 15 15 15 15 16 14 14 15 15 14 15 15 15 15 15 15 14 14 14 14 14 14 14 15 15 14 14 13 13 12 12 11 11 12 12 12 13 13 13 13 13 13 13
14 14 15 16 16 15 14 15 15 15 14 14 15 15 15 14 14 13 13 13 13 12 12 12 13 12 11 11 11 11 10 10 10 10 10 11 11 11 11 11 11 11 11 12
14 14 15 16 16 16 14 14 14 14 14 14 14 14 13 12 12 12 12 12 11 10 10 10 10 10 10 10 9 8 8 8 8 9 9 8 9 9 10 10 11 11 12 12
13 14 15 15 15 14 13 12 13 14 13 13 13 13 12 12 11 11 11 11 10 9 9 9 8 8 9 9 8 7 7 7 8 7 7 7 7 8 9 10 10 10 11 11
13 13 14 14 14 13 11 11 12 12 12 12 12 12 12 11 11 11 10 10 9 8 8 7 7 7 7 7 6 6 6 6 6 6 6 6 7 8 9 9 9 10 10 10
12 12 12 13 12 12 11 11 11 11 11 11 11 11 11 10 10 10 9 9 8 7 7 6 6 6 6 6 6 4 3 4 5 6 6 6 7 7 8 9 9 9 9 9
12 12 12 12 11 10 10 10 10 10 9 9 9 9 9 8 8 8 8 8 7 6 5 5 5 5 5 5 4 3 3 3 5 4 5 5 6 7 8 8 8 8 8 9
11 11 11 10 10 10 9 9 8 8 7 7 7 7 7 7 7 7 6 5 5 5 4 4 4 3 3 3 3 2 2 3 3 3 4 5 6 7 7 8 8 8 9 9
10 10 9 9 9 9 8 7 6 6 6 6 6 6 6 6 5 4 4 3 3 3 3 2 2 1 2 3 2 2 2 2 3 3 4 5 7 7 7 7 8 8 8 8
Wind_Direction
222 222 226 226 225 226 229 229 230 230 236 241 244 247 252 258 266 269 269 271 276 279 282 285 286 286 286 286 288 288 285 287 288 289 286 286 289 287 285 286 286 286 286 287
220 221 223 225 224 225 226 229 230 234 240 246 248 248 251 259 265 268 270 273 278 278 280 281 283 284 286 289 288 287 288 290 289 289 290 291 291 289 287 287 287 286 286 286
221 221 223 224 223 225 227 230 232 235 241 245 250 253 254 260 265 267 270 273 277 278 278 279 282 283 285 289 288 287 288 289 292 293 295 294 292 290 288 287 287 287 287 286
218 220 222 223 224 228 231 235 235 237 241 245 251 254 255 262 266 269 271 272 276 281 280 279 280 283 284 285 287 287 288 288 291 294 295 293 294 293 291 290 290 290 289 288
219 221 220 221 223 228 231 235 238 240 243 247 252 258 259 263 266 270 271 271 274 277 278 276 276 280 282 285 289 290 289 290 291 293 295 295 293 295 293 292 293 293 291 291
223 226 226 224 225 228 233 239 242 246 249 252 256 262 264 268 269 271 273 271 273 270 272 272 274 278 282 285 288 291 291 292 292 293 295 296 294 294 294 293 294 293 292 292
223 228 230 229 229 233 237 243 248 252 255 259 263 266 271 273 273 275 275 272 270 270 270 270 274 279 282 286 289 290 290 289 290 291 294 296 295 294 294 295 293 292 292 293
225 232 236 235 233 236 240 245 252 259 263 267 268 273 276 276 277 276 272 268 267 268 271 273 275 280 283 285 288 289 288 288 289 291 293 295 296 295 295 297 295 293 293 293
229 231 237 240 240 243 246 246 252 262 268 274 276 281 279 277 279 279 275 269 266 269 271 273 276 280 284 287 290 291 290 289 290 292 295 297 297 297 296 297 297 294 295 296
231 232 236 240 246 249 250 250 255 261 268 276 282 286 288 284 282 282 281 277 274 272 273 273 276 280 284 288 290 293 292 290 291 293 297 298 296 298 299 299 297 296 297 298
239 244 243 242 247 258 256 257 259 264 270 277 283 286 286 284 284 283 282 278 276 274 277 277 277 279 282 286 290 292 292 291 293 297 300 300 300 300 303 302 300 298 299 299
245 249 247 250 254 257 260 263 267 269 271 279 284 288 286 285 285 284 282 279 276 278 278 277 278 280 281 284 286 289 293 295 298 300 304 304 305 306 306 306 303 302 302 303
247 250 250 250 253 258 261 267 271 273 276 280 283 287 290 288 285 286 284 280 278 279 277 276 278 280 282 283 285 288 291 295 298 300 303 306 308 309 309 310 308 306 305 305
246 249 254 256 261 265 266 269 271 275 278 280 283 286 288 288 287 287 284 279 276 278 278 278 279 279 279 281 286 289 289 292 296 298 301 305 309 311 312 313 313 311 311 310
250 255 258 259 262 265 267 269 271 277 281 281 284 287 290 289 289 287 285 281 279 280 280 279 281 283 282 284 287 290 290 293 296 299 303 308 310 313 316 318 318 317 317 316
254 257 259 262 267 267 268 272 275 280 283 282 285 288 290 293 290 288 285 283 283 282 282 281 282 284 283 283 284 289 291 294 297 301 307 311 312 313 316 321 323 324 323 322
258 259 260 265 268 271 274 277 278 283 285 288 288 290 293 295 293 290 287 286 286 284 283 283 285 286 286 287 286 286 292 297 300 303 305 309 314 316 318 320 321 325 326 327
258 262 266 270 271 272 276 276 280 280 281 287 291 292 294 295 295 293 291 288 288 288 287 288 290 292 289 286 284 284 289 299 301 303 308 312 316 320 321 323 325 327 332 335
257 262 266 271 274 277 277 278 284 285 286 289 293 295 296 295 294 293 293 292 292 294 294 294 295 295 287 286 286 289 288 295 298 303 311 313 317 323 327 329 330 333 338 340
253 259 265 270 275 278 281 282 283 286 287 291 296 296 297 296 292 291 292 294 296 297 298 296 295 296 291 291 289 288 291 297 300 304 313 316 319 324 330 333 336 337 339 339
250 256 263 269 274 279 284 285 284 286 289 289 292 294 296 295 293 291 292 293 295 298 298 298 298 298 297 293 285 291 296 300 304 308 313 317 322 325 328 334 341 345 345 345
249 257 264 269 273 280 282 285 287 288 287 285 287 292 295 293 292 291 293 296 297 300 302 302 301 299 296 293 289 294 302 302 303 307 314 315 320 326 331 334 339 343 346 348
247 257 266 271 275 280 281 286 287 285 286 284 285 293 295 294 292 291 292 294 295 298 301 302 298 300 302 308 304 291 300 303 304 306 312 320 327 332 335 336 337 338 342 347
243 255 263 267 273 277 281 285 287 288 289 287 292 298 298 296 296 292 289 292 294 295 302 306 309 302 301 309 327 309 297 310 316 317 324 328 331 334 337 340 342 343 346 348
243 254 259 262 270 275 282 285 288 293 292 296 302 306 307 305 304 299 297 296 295 298 305 316 322 311 315 339 349 324 309 312 328 342 347 343 343 344 345 346 346 345 344 346
237 247 254 259 266 273 278 281 287 292 294 301 306 309 314 318 320 317 311 308 306 310 310 315 322 298 318 358 2 347 345 346 348 348 347 350 352 349 350 354 354 355 357 2
Height
5816 5819 5821 5823 5826 5829 5831 5833 5836 5838 5839 5840 5842 5844 5845 5846 5846 5847 5848 5849 5849 5849 5849 5848 5848 5847 5846 5846 5845 5844 5843 5841 5840 5839 5837 5836 5835 5833 5832 5830 5829 5827 5826 5824
5815 5817 5819 5821 5823 5826 5828 5831 5833 5835 5836 5837 5839 5840 5842 5842 5843 5844 5845 5845 5845 5845 5844 5844 5843 5843 5842 5842 5841 5840 5839 5837 5835 5834 5833 5831 5829 5828 5826 5825 5823 5821 5820 5818
5813 5816 5817 5819 5821 5824 5826 5829 5831 5832 5833 5834 5835 5837 5839 5839 5840 5840 5841 5842 5842 5841 5841 5840 5839 5838 5838 5837 5837 5835 5834 5832 5831 5829 5828 5826 5825 5822 5820 5819 5817 5815 5813 5812
5812 5814 5815 5817 5819 5822 5824 5826 5827 5829 5830 5831 5833 5834 5836 5836 5836 5836 5837 5838 5838 5838 5837 5836 5835 5834 5834 5833 5832 5831 5829 5828 5826 5825 5823 5821 5819 5817 5815 5812 5811 5809 5807 5805
5811 5812 5814 5816 5818 5820 5822 5823 5824 5826 5827 5828 5830 5830 5833 5832 5832 5833 5833 5834 5834 5833 5832 5831 5830 5830 5830 5829 5828 5826 5825 5823 5821 5820 5818 5816 5814 5812 5809 5807 5805 5803 5801 5798
5810 5811 5813 5815 5817 5818 5819 5820 5821 5823 5824 5826 5827 5827 5828 5828 5829 5829 5829 5829 5828 5828 5827 5827 5826 5826 5825 5824 5823 5821 5819 5818 5816 5815 5813 5810 5808 5806 5803 5801 5799 5797 5795 5792
5808 5810 5812 5813 5815 5816 5817 5819 5819 5820 5821 5822 5824 5823 5825 5824 5824 5824 5824 5824 5823 5823 5823 5822 5822 5821 5821 5820 5818 5816 5814 5813 5811 5809 5807 5805 5803 5800 5798 5795 5793 5791 5788 5786
5807 5809 5811 5812 5813 5814 5815 5816 5818 5818 5818 5819 5819 5819 5821 5820 5819 5819 5819 5819 5819 5818 5818 5818 5817 5816 5816 5815 5813 5811 5809 5807 5806 5804 5802 5800 5797 5795 5792 5790 5787 5784 5782 5779
5806 5808 5809 5810 5811 5812 5812 5813 5815 5815 5815 5815 5816 5816 5816 5815 5815 5814 5814 5813 5813 5813 5813 5813 5812 5812 5811 5810 5808 5806 5804 5802 5800 5799 5796 5794 5791 5789 5786 5784 5781 5778 5775 5773
5804 5806 5807 5807 5808 5809 5811 5811 5812 5812 5811 5812 5812 5812 5812 5811 5811 5810 5809 5808 5808 5808 5807 5807 5807 5807 5806 5805 5803 5802 5800 5798 5795 5793 5791 5788 5786 5783 5780 5777 5775 5772 5770 5767
5802 5804 5805 5805 5806 5807 5808 5808 5808 5808 5809 5809 5808 5811 5809 5808 5807 5806 5805 5804 5804 5803 5803 5802 5801 5801 5801 5800 5799 5797 5795 5793 5791 5788 5786 5783 5780 5778 5775 5772 5770 5767 5764 5761
5800 5801 5802 5803 5804 5804 5805 5805 5805 5806 5806 5805 5805 5808 5804 5803 5802 5801 5800 5799 5799 5798 5798 5797 5797 5796 5796 5795 5794 5792 5790 5788 5786 5784 5781 5778 5775 5773 5770 5767 5765 5762 5759 5757
5798 5799 5799 5800 5803 5802 5802 5802 5802 5802 5802 5801 5801 5804 5800 5798 5797 5796 5795 5794 5793 5793 5793 5792 5791 5791 5790 5789 5788 5787 5785 5783 5781 5779 5777 5774 5772 5769 5766 5763 5760 5757 5755 5752
5795 5796 5797 5798 5798 5798 5799 5799 5799 5799 5798 5798 5797 5797 5796 5794 5793 5792 5790 5790 5789 5788 5787 5787 5786 5786 5785 5784 5783 5781 5780 5778 5777 5775 5773 5771 5768 5765 5762 5759 5756 5753 5750 5747
5792 5793 5793 5794 5794 5795 5795 5795 5795 5795 5794 5794 5793 5792 5791 5789 5788 5787 5786 5785 5784 5783 5782 5782 5781 5780 5779 5779 5778 5777 5775 5774 5772 5771 5769 5766 5763 5761 5758 5756 5752 5749 5746 5744
5789 5790 5790 5791 5791 5791 5791 5791 5791 5791 5790 5789 5789 5788 5787 5785 5783 5782 5781 5780 5779 5778 5778 5777 5776 5775 5774 5773 5773 5772 5771 5769 5768 5767 5765 5762 5760 5758 5755 5752 5750 5746 5744 5741
5786 5786 5787 5788 5787 5787 5788 5788 5788 5787 5786 5786 5785 5784 5782 5780 5779 5777 5776 5776 5775 5774 5773 5772 5771 5770 5769 5769 5768 5768 5767 5765 5764 5763 5761 5759 5757 5755 5752 5750 5747 5744 5741 5739
5783 5783 5784 5784 5785 5784 5787 5785 5784 5784 5783 5782 5781 5780 5778 5776 5775 5773 5772 5771 5770 5770 5769 5768 5767 5765 5764 5764 5764 5763 5763 5762 5761 5760 5758 5756 5754 5752 5750 5747 5745 5742 5740 5737
5780 5780 5780 5781 5780 5781 5782 5781 5780 5780 5779 5778 5777 5776 5774 5773 5771 5770 5769 5768 5767 5766 5765 5764 5763 5761 5760 5760 5759 5759 5759 5758 5758 5757 5755 5754 5752 5750 5748 5746 5743 5741 5739 5736
5776 5777 5778 5777 5776 5777 5779 5777 5776 5777 5776 5775 5773 5772 5770 5769 5768 5768 5766 5765 5763 5762 5761 5760 5759 5758 5757 5757 5756 5755 5755 5755 5755 5754 5753 5752 5750 5748 5746 5744 5742 5740 5737 5735
5773 5774 5774 5774 5773 5773 5774 5773 5773 5774 5773 5771 5769 5768 5767 5766 5765 5764 5762 5761 5760 5759 5758 5757 5756 5755 5755 5754 5753 5752 5752 5752 5752 5751 5751 5750 5748 5747 5745 5743 5741 5739 5737 5734
5770 5771 5771 5771 5771 5773 5771 5770 5770 5770 5768 5767 5766 5765 5764 5762 5761 5760 5759 5758 5757 5756 5755 5754 5754 5753 5752 5751 5750 5750 5750 5750 5750 5749 5748 5748 5747 5745 5744 5742 5740 5738 5736 5734
5767 5768 5768 5769 5770 5768 5767 5767 5766 5765 5765 5763 5763 5762 5761 5759 5758 5757 5756 5755 5754 5753 5753 5752 5751 5751 5750 5749 5749 5748 5748 5748 5748 5747 5747 5746 5746 5744 5742 5741 5739 5737 5735 5733
5764 5765 5765 5765 5765 5765 5764 5764 5763 5762 5761 5761 5760 5759 5758 5756 5755 5754 5753 5752 5751 5751 5750 5750 5749 5749 5749 5748 5747 5747 5747 5747 5747 5746 5746 5745 5744 5743 5741 5740 5738 5736 5734 5732
5762 5762 5761 5762 5762 5762 5762 5761 5760 5759 5759 5758 5757 5756 5755 5754 5753 5751 5750 5750 5749 5749 5749 5748 5748 5748 5748 5747 5747 5746 5746 5746 5746 5745 5745 5744 5743 5742 5740 5739 5737 5736 5734 5732
5759 5759 5759 5760 5760 5760 5760 5759 5758 5757 5757 5756 5755 5754 5753 5752 5751 5750 5749 5748 5748 5747 5747 5747 5747 5747 5747 5747 5746 5746 5746 5745 5745 5745 5744 5744 5742 5741 5740 5738 5737 5735 5733 5732